Wind_Speed
9 8 7 7 6 5 4 3 2 1 3 4 4 5 6 6 7 8 8 8 9 8 8 8 8 9 9 8 9 9 9 10 10 10 10 10 9 9 10 9 9 8 8
9 8 8 7 6 5 4 3 2 1 2 3 4 4 4 5 6 6 6 7 7 8 7 7 7 7 8 8 8 8 8 9 9 9 10 10 10 10 10 10 10 9 8
9 9 8 8 7 6 5 4 4 3 3 3 4 4 4 4 5 5 5 5 6 6 6 7 6 7 7 8 8 8 8 9 9 9 10 10 10 11 11 10 10 9 9
10 9 9 8 7 6 6 5 5 5 4 4 4 4 5 4 4 4 3 4 4 5 5 5 5 5 6 6 7 7 8 8 9 9 10 10 10 11 10 10 10 10 9
10 10 9 9 8 7 6 6 6 6 6 6 5 5 5 5 4 3 3 3 3 4 4 4 4 4 5 5 6 7 7 7 8 8 9 10 10 10 10 11 11 11 11
10 10 9 9 8 7 7 7 7 7 7 7 6 6 5 5 4 3 3 2 2 3 3 2 3 3 4 5 6 6 7 7 8 8 8 9 9 9 10 11 11 11 11
9 10 9 9 9 8 8 8 7 7 7 7 6 6 5 5 4 4 3 2 2 2 1 1 1 1 3 4 5 5 6 7 8 7 8 9 9 9 10 11 11 11 11
8 9 9 9 9 8 8 8 8 7 7 7 7 6 6 6 5 4 4 3 2 2 1 0 1 2 2 3 3 4 5 6 6 6 7 8 9 9 10 10 10 11 11
8 8 8 9 9 8 8 8 8 7 7 7 7 6 6 6 6 5 4 3 2 2 1 1 1 2 2 3 3 4 5 5 5 6 7 8 8 8 8 9 10 10 11
7 8 8 8 8 8 8 8 8 8 7 6 6 6 5 6 6 5 4 4 3 3 2 2 2 2 3 3 4 4 4 4 4 5 5 6 7 7 7 7 8 8 9
6 7 7 7 7 7 7 7 7 7 7 6 6 5 5 5 5 5 5 4 4 4 3 3 3 3 4 4 5 5 4 4 4 4 4 4 5 6 6 7 7 8 9
5 6 6 6 7 7 7 7 7 7 7 6 6 6 5 5 5 4 4 4 4 4 4 4 3 3 4 5 5 5 4 4 4 5 5 5 5 5 6 6 6 7 8
4 4 5 5 5 6 6 6 6 7 7 6 6 6 5 4 5 5 4 4 5 5 5 5 4 4 4 4 6 6 6 6 6 6 6 5 5 5 6 7 7 8 9
3 4 4 5 5 5 5 5 5 5 6 6 6 6 5 5 5 4 4 4 4 5 5 5 5 5 5 6 6 7 6 6 7 6 6 6 6 7 7 8 8 9 10
2 2 3 3 3 4 4 4 4 4 5 5 5 5 5 5 5 4 4 4 4 5 5 6 6 6 6 6 7 8 7 7 8 8 7 7 7 8 9 10 11 12 12
0 1 1 2 2 3 3 3 3 3 4 4 5 5 5 5 5 5 5 5 5 6 6 6 6 6 7 7 7 8 9 9 10 10 10 10 10 11 12 13 13 14 15
1 1 0 1 1 2 2 2 3 3 3 4 4 4 4 4 5 6 6 6 6 6 7 7 7 8 8 9 9 9 10 11 11 11 12 12 12 13 14 15 16 16 17
2 1 1 1 1 1 1 2 2 2 3 3 3 4 4 5 5 5 6 6 7 7 8 8 8 9 10 10 10 11 11 12 12 12 13 14 15 15 16 17 18 19 20
4 3 3 2 1 1 1 2 2 2 2 3 3 4 5 5 5 6 6 7 7 8 8 9 9 10 11 11 12 13 14 14 14 15 16 16 17 18 19 20 20 21 22
6 5 4 4 3 2 3 3 3 3 3 4 4 5 5 5 6 7 7 8 9 9 10 10 11 12 12 13 14 15 15 16 16 17 18 19 20 20 21 21 22 23 24
8 7 6 6 5 5 5 5 5 5 5 6 6 6 6 7 7 8 9 10 11 11 12 12 13 14 14 15 16 16 17 18 19 20 21 21 22 22 23 24 24 25 26
10 9 8 7 7 6 6 6 6 7 7 7 7 8 8 8 9 10 11 12 12 13 13 14 15 16 16 17 18 19 19 21 22 22 23 24 24 25 25 26 27 28 29
12 11 10 9 9 8 8 8 8 9 8 9 9 9 9 10 11 12 13 13 14 15 15 16 17 17 18 19 20 21 22 23 24 25 25 26 27 27 28 29 30 31 32
14 13 12 11 10 10 10 10 10 10 10 10 10 10 11 12 13 13 14 15 16 16 17 18 19 20 21 21 23 23 24 25 26 27 28 28 28 29 31 32 33 34 35
15 15 15 13 12 12 11 11 12 12 12 12 12 13 13 14 15 15 16 17 18 19 20 21 22 22 23 24 25 25 26 27 28 29 30 30 30 31 32 33 34 36 37
16 15 15 15 14 14 14 14 14 14 14 14 15 15 16 16 17 17 18 19 20 21 22 23 23 24 25 26 27 28 29 30 30 31 32 32 33 33 33 34 36 37 39
Wind_Direction
8 10 11 10 7 2 358 352 322 249 213 207 204 202 202 199 201 209 213 217 220 224 228 227 228 229 233 237 243 244 243 245 250 250 250 251 254 258 260 260 266 274 282
10 12 13 12 11 13 20 32 54 107 159 177 181 184 182 186 196 202 211 216 220 224 227 226 231 236 243 245 245 245 246 246 248 250 253 252 254 259 261 262 265 270 279
13 14 19 20 23 31 43 56 74 100 126 141 152 162 165 171 189 200 209 213 219 224 228 227 235 243 246 243 244 249 255 253 249 252 253 256 258 260 261 262 263 266 273
20 21 24 27 33 44 55 66 76 92 109 121 127 137 144 152 170 185 198 207 213 219 225 233 243 246 245 244 246 251 255 258 255 254 255 259 263 261 261 261 261 264 269
26 29 31 34 42 52 61 71 79 90 100 108 116 125 130 136 145 157 170 185 196 204 212 229 244 244 246 247 249 253 256 262 260 255 257 262 265 265 263 265 261 262 265
31 33 36 42 49 56 66 74 80 88 96 102 108 114 118 126 129 130 134 146 170 179 197 226 240 243 252 253 256 257 259 263 265 265 266 269 270 268 269 270 264 263 264
35 38 41 46 53 61 70 74 78 85 92 97 102 106 108 110 108 103 101 97 109 127 174 248 259 261 265 274 270 268 267 270 271 271 269 271 271 272 273 273 267 264 265
40 43 46 51 56 64 71 74 77 82 89 91 95 100 102 100 94 86 81 79 89 96 77 358 357 353 321 308 298 280 270 265 279 281 282 278 276 277 277 274 271 268 268
44 48 50 54 59 66 71 73 76 79 83 87 91 95 93 90 91 84 82 75 67 69 65 31 3 355 333 323 315 290 271 267 289 289 288 281 277 281 275 276 274 273 270
48 51 54 57 61 67 71 71 73 76 79 83 85 86 88 81 80 77 74 66 52 43 39 26 18 8 359 356 342 318 297 300 310 312 306 287 279 280 277 276 278 275 271
52 55 57 60 63 68 71 72 72 72 74 76 78 79 80 78 74 74 65 59 50 52 53 38 26 15 5 359 351 337 330 325 323 322 323 309 285 280 281 281 279 275 272
54 55 57 62 65 68 70 71 72 70 69 69 73 75 74 71 67 63 52 46 43 43 40 36 18 9 5 357 351 345 338 330 323 322 321 318 306 291 286 283 280 276 276
61 60 61 62 64 66 68 71 72 71 65 65 66 69 70 64 57 50 44 38 31 27 25 29 25 14 5 355 349 346 335 325 321 319 322 319 320 312 300 293 290 287 285
74 69 63 61 64 65 67 70 70 65 62 62 60 61 64 55 46 38 32 27 21 23 18 14 12 9 3 356 349 346 342 336 330 327 325 319 317 314 309 302 296 292 290
77 72 59 56 60 66 66 62 60 59 59 56 52 56 53 44 37 27 21 19 14 11 9 5 357 351 354 352 351 350 345 336 334 335 323 318 309 304 302 299 299 295 292
90 72 50 50 55 63 57 52 51 52 51 50 55 50 43 36 34 26 21 17 11 4 1 359 356 352 350 350 349 351 349 346 337 330 323 318 312 306 304 303 301 299 296
222 205 165 47 39 38 36 39 42 42 41 40 38 35 34 33 25 19 16 11 6 3 2 -0 360 357 354 351 349 346 344 344 336 328 321 317 315 312 308 305 303 300 297
226 218 224 255 296 346 359 7 12 15 17 23 23 20 20 13 8 9 9 5 1 358 357 354 351 349 348 346 342 338 334 333 330 326 322 317 313 311 307 305 303 302 300
231 233 242 251 265 291 320 324 336 353 6 1 357 358 355 356 358 360 356 353 350 346 344 341 339 338 336 334 332 330 328 326 322 322 319 316 314 312 310 307 306 304 303
237 239 245 251 261 277 291 295 299 319 335 338 336 337 339 343 346 345 342 339 336 334 333 331 330 329 328 327 326 326 324 322 320 319 317 316 314 312 310 307 305 303 302
241 243 246 250 257 268 278 283 288 294 307 315 321 326 327 328 329 330 330 330 328 326 325 324 323 323 322 321 321 321 319 319 317 315 315 313 311 309 307 305 304 302 302
241 242 245 249 255 263 273 280 286 287 296 302 307 311 314 316 317 319 321 321 320 319 319 319 319 319 317 317 317 318 316 315 315 314 313 311 310 309 307 306 304 303 302
242 242 246 249 255 260 268 276 282 286 291 293 296 300 303 308 310 312 313 315 316 317 316 316 317 317 316 316 316 316 315 314 314 313 312 311 309 308 307 306 305 305 304
241 243 247 249 255 261 267 274 279 283 289 293 294 296 299 302 304 307 310 312 314 316 316 315 314 314 313 313 313 313 314 313 313 311 310 310 309 308 307 307 306 306 305
243 245 249 251 254 260 267 274 278 283 286 289 290 292 296 298 300 302 304 307 309 310 311 312 312 312 312 311 312 312 313 313 313 312 311 310 309 309 308 308 307 306 305
242 244 248 251 256 260 265 270 275 280 283 285 288 290 292 294 296 299 302 304 305 307 308 309 309 310 310 310 312 312 312 312 312 311 311 311 310 309 309 308 307 306 306
Height
5867 5866 5864 5863 5861 5860 5859 5859 5859 5859 5860 5861 5863 5864 5865 5867 5868 5870 5872 5873 5875 5876 5878 5880 5881 5882 5884 5885 5886 5887 5887 5888 5889 5890 5891 5891 5892 5893 5894 5894 5894 5894 5893
5868 5866 5864 5863 5861 5860 5859 5859 5859 5859 5860 5861 5862 5864 5865 5867 5868 5870 5871 5873 5874 5876 5877 5879 5880 5881 5882 5883 5884 5885 5886 5887 5888 5889 5889 5890 5891 5892 5892 5893 5893 5893 5892
5868 5866 5865 5863 5862 5860 5860 5859 5859 5859 5860 5861 5862 5864 5865 5867 5868 5870 5871 5873 5874 5875 5877 5878 5879 5880 5881 5882 5883 5884 5885 5886 5886 5887 5888 5888 5889 5890 5890 5891 5891 5891 5891
5869 5867 5865 5864 5862 5861 5861 5860 5860 5861 5861 5862 5863 5864 5866 5867 5868 5870 5871 5872 5874 5875 5876 5878 5879 5880 5880 5881 5882 5883 5884 5884 5885 5885 5886 5886 5887 5888 5888 5889 5889 5890 5890
5870 5868 5866 5865 5864 5863 5862 5862 5862 5862 5862 5863 5864 5865 5867 5868 5869 5870 5872 5873 5874 5875 5876 5877 5878 5879 5880 5880 5881 5881 5882 5883 5883 5884 5884 5884 5885 5886 5886 5887 5887 5888 5888
5871 5869 5868 5866 5865 5864 5864 5864 5863 5864 5864 5865 5866 5867 5868 5869 5870 5871 5872 5873 5874 5875 5876 5877 5878 5878 5879 5879 5880 5880 5881 5881 5882 5882 5882 5882 5883 5883 5884 5884 5884 5885 5886
5872 5870 5869 5868 5867 5866 5866 5866 5866 5866 5866 5867 5868 5869 5869 5870 5871 5872 5873 5874 5874 5875 5876 5877 5878 5878 5879 5879 5879 5879 5879 5880 5880 5880 5880 5881 5881 5881 5881 5881 5881 5882 5883
5873 5872 5871 5870 5869 5868 5868 5868 5868 5868 5869 5869 5870 5871 5871 5873 5873 5873 5874 5875 5875 5876 5876 5877 5877 5878 5878 5878 5878 5878 5878 5879 5878 5878 5878 5878 5879 5879 5879 5878 5878 5879 5880
5875 5874 5873 5872 5871 5870 5870 5870 5870 5870 5871 5871 5872 5873 5873 5874 5874 5875 5875 5875 5876 5876 5877 5877 5877 5877 5878 5877 5877 5877 5877 5877 5877 5876 5875 5875 5876 5876 5876 5876 5875 5876 5877
5876 5875 5874 5874 5873 5873 5872 5872 5872 5873 5873 5873 5874 5874 5875 5875 5876 5876 5876 5876 5876 5876 5877 5877 5877 5877 5877 5877 5877 5876 5876 5876 5875 5875 5873 5872 5873 5874 5874 5874 5874 5874 5875
5878 5877 5876 5876 5875 5875 5875 5875 5875 5875 5875 5875 5875 5876 5876 5876 5877 5877 5877 5877 5877 5877 5877 5877 5877 5877 5877 5877 5876 5876 5876 5875 5875 5874 5873 5872 5872 5872 5872 5872 5873 5873 5873
5880 5879 5878 5878 5877 5877 5877 5877 5877 5877 5877 5877 5877 5877 5877 5878 5878 5878 5878 5878 5878 5878 5878 5877 5877 5877 5877 5877 5876 5876 5875 5874 5874 5874 5873 5872 5871 5871 5871 5871 5871 5872 5873
5881 5881 5880 5880 5879 5879 5879 5879 5879 5879 5879 5879 5879 5879 5879 5879 5879 5879 5879 5879 5879 5879 5879 5878 5877 5877 5877 5876 5876 5875 5874 5874 5873 5873 5872 5872 5872 5871 5871 5870 5870 5871 5871
5882 5882 5882 5881 5881 5881 5881 5881 5881 5881 5881 5881 5880 5880 5880 5880 5880 5880 5880 5880 5880 5880 5879 5879 5878 5877 5876 5876 5875 5874 5874 5873 5873 5872 5871 5871 5871 5870 5870 5870 5869 5869 5869
5883 5883 5883 5883 5883 5883 5883 5883 5882 5882 5882 5882 5882 5882 5882 5881 5881 5881 5881 5881 5881 5880 5880 5879 5878 5877 5876 5875 5875 5874 5873 5872 5871 5871 5870 5869 5869 5868 5868 5868 5867 5867 5867
5884 5884 5884 5884 5884 5884 5884 5884 5884 5884 5883 5883 5883 5883 5883 5882 5882 5882 5881 5881 5881 5880 5880 5879 5878 5877 5876 5875 5874 5873 5872 5871 5870 5870 5869 5868 5867 5866 5866 5865 5864 5864 5863
5884 5884 5885 5885 5885 5885 5885 5885 5885 5885 5885 5884 5884 5884 5884 5883 5883 5882 5882 5881 5881 5880 5879 5878 5877 5876 5875 5874 5873 5872 5871 5870 5869 5868 5867 5866 5865 5864 5863 5862 5861 5860 5859
5884 5884 5885 5885 5885 5885 5885 5885 5885 5885 5885 5885 5885 5885 5884 5884 5883 5883 5882 5881 5881 5880 5879 5878 5877 5876 5875 5874 5872 5871 5870 5868 5867 5865 5864 5863 5861 5860 5859 5858 5857 5855 5854
5883 5884 5885 5885 5885 5886 5886 5886 5886 5886 5886 5885 5885 5885 5884 5884 5883 5883 5882 5881 5880 5880 5879 5878 5877 5875 5874 5872 5871 5869 5868 5866 5864 5862 5860 5858 5857 5855 5854 5853 5851 5850 5849
5883 5883 5884 5885 5885 5885 5886 5886 5886 5886 5885 5885 5885 5885 5884 5883 5883 5882 5881 5880 5880 5879 5877 5876 5875 5874 5872 5870 5868 5867 5865 5863 5861 5859 5856 5854 5852 5850 5849 5847 5846 5844 5843
5881 5882 5883 5883 5884 5884 5885 5885 5885 5885 5885 5884 5884 5884 5883 5883 5882 5881 5880 5879 5878 5877 5876 5874 5873 5871 5869 5868 5866 5864 5861 5859 5857 5854 5852 5850 5847 5845 5843 5841 5839 5838 5836
5879 5880 5881 5882 5883 5883 5883 5884 5884 5884 5883 5883 5883 5882 5882 5881 5880 5879 5878 5877 5876 5875 5873 5872 5870 5868 5866 5864 5862 5860 5857 5855 5852 5850 5847 5844 5841 5839 5836 5834 5832 5830 5828
5877 5878 5879 5880 5881 5881 5881 5882 5882 5882 5882 5881 5881 5881 5880 5879 5878 5877 5876 5875 5873 5872 5870 5869 5867 5864 5862 5860 5858 5855 5853 5850 5847 5844 5841 5837 5834 5831 5829 5826 5824 5822 5819
5874 5875 5876 5877 5878 5879 5879 5879 5879 5879 5879 5879 5878 5878 5877 5877 5876 5874 5873 5872 5870 5869 5867 5865 5863 5860 5858 5856 5853 5850 5847 5844 5841 5838 5834 5831 5828 5825 5821 5818 5815 5812 5810
5870 5871 5873 5874 5875 5876 5876 5877 5877 5877 5877 5876 5876 5875 5875 5874 5873 5871 5870 5869 5867 5865 5863 5861 5858 5856 5853 5850 5848 5845 5842 5839 5835 5831 5827 5824 5820 5817 5814 5810 5807 5803 5800
5866 5868 5869 5870 5871 5872 5873 5873 5873 5873 5873 5873 5872 5872 5871 5870 5869 5867 5866 5865 5863 5860 5858 5856 5853 5850 5848 5844 5841 5838 5835 5832 5828 5825 5820 5817 5813 5809 5807 5803 5798 5794 5790